Temperature
23 22 21 20 20 20 19 19 19 19 19 19 19 18 18 18 18 18 18 18 18 18 18 18 18 17 18 18 17 17 17 17 17 17 17 17 17 17 17 17 17 17 17
23 22 21 21 20 20 20 19 19 19 19 19 19 19 18 18 18 18 18 18 18 18 18 18 17 18 17 17 17 17 17 17 17 17 18 18 18 17 17 17 17 17 17
24 23 22 21 21 20 20 20 19 19 19 19 19 18 18 18 18 18 18 18 18 18 18 17 18 17 17 17 17 17 17 17 17 17 17 18 18 18 18 17 17 17 17
24 23 22 21 21 20 20 20 20 19 19 19 19 19 19 19 18 18 18 18 18 18 18 18 17 18 17 17 17 17 17 17 17 17 17 17 17 18 18 17 17 17 16
25 24 23 22 21 21 20 20 20 20 19 19 19 19 19 19 18 18 18 18 18 18 17 18 18 18 17 17 17 17 17 17 17 17 17 17 17 17 18 18 17 17 17
25 24 23 22 22 21 20 20 20 20 19 19 19 19 19 19 18 18 18 18 18 18 18 17 18 17 17 17 17 17 17 17 17 17 17 17 17 18 18 18 17 17 17
25 24 23 22 22 21 21 20 20 20 20 19 19 19 19 19 18 18 18 18 18 18 17 17 18 17 17 17 17 17 17 17 17 17 17 17 17 17 17 17 17 17 17
26 25 24 23 22 22 21 20 20 20 20 19 19 19 19 19 18 18 18 18 18 18 18 17 17 17 17 17 17 17 17 17 17 16 16 16 17 17 17 17 17 17 17
25 25 24 23 22 22 21 21 20 20 20 20 20 19 19 19 18 18 18 18 18 18 17 17 17 17 17 17 17 17 17 17 16 16 16 16 16 16 16 16 16 16 17
25 24 24 23 22 22 21 20 20 20 20 19 19 19 19 19 19 18 18 18 18 18 17 17 17 17 17 17 17 16 16 16 16 16 16 16 16 16 16 16 16 16 16
25 24 23 23 22 22 21 20 20 20 19 19 19 19 19 19 19 18 18 18 18 17 17 17 17 17 17 16 17 16 16 16 16 16 16 16 16 16 16 16 16 16 16
25 24 23 23 22 22 21 20 20 20 19 19 19 19 19 18 18 18 18 18 18 17 17 17 17 17 16 16 16 16 16 16 15 15 15 15 15 15 15 15 15 15 15
24 24 23 22 22 22 21 21 20 20 19 19 19 19 18 18 18 18 18 18 17 17 17 17 17 16 16 16 16 16 16 15 15 15 15 15 15 15 15 15 15 15 15
23 23 22 22 21 21 21 20 20 19 19 19 18 18 18 18 18 18 17 17 17 17 17 17 16 16 16 16 16 16 15 15 15 15 15 15 15 15 15 15 15 15 15
23 22 22 21 21 20 20 20 20 19 19 18 18 18 18 18 17 17 17 17 17 17 16 16 16 16 16 16 16 15 15 15 15 15 15 14 15 15 15 14 14 14 14
22 22 21 20 20 19 19 19 19 19 18 18 18 18 17 17 17 17 17 17 17 16 16 16 16 16 16 16 16 16 15 15 15 15 14 15 14 15 15 15 14 14 14
22 21 20 20 19 19 19 19 19 18 18 18 18 18 17 17 17 17 17 17 16 16 16 16 16 15 16 16 16 15 15 15 15 14 14 14 14 14 14 14 14 14 14
22 21 20 19 19 19 19 19 18 18 18 18 18 17 17 17 17 17 17 17 16 16 16 16 16 15 15 16 16 15 15 15 14 14 14 14 14 14 14 14 14 13 13
20 20 20 19 19 19 18 18 18 18 18 17 17 17 17 17 17 17 17 16 16 16 16 16 16 15 16 16 16 15 15 14 14 14 14 14 14 14 14 13 13 13 13
20 19 19 19 19 18 18 18 18 18 18 17 17 17 17 17 16 16 16 16 16 16 16 16 15 15 15 15 15 15 15 14 14 14 14 14 14 13 14 13 13 13 13
19 19 19 19 18 18 18 18 17 17 17 17 17 17 17 16 16 16 16 16 16 16 16 15 15 15 15 15 15 15 15 14 14 14 14 13 14 13 13 13 13 13 12
18 18 18 18 18 17 17 17 17 17 17 17 17 17 17 16 16 16 16 16 16 15 15 15 15 15 15 15 15 15 15 14 14 14 13 13 13 13 13 13 13 13 12
18 18 18 17 17 17 17 17 17 17 17 17 17 17 16 16 16 16 16 15 15 15 15 15 15 15 15 15 15 15 15 14 14 13 13 13 13 13 13 12 12 12 12
17 17 17 17 17 17 17 17 17 17 17 17 16 16 16 16 16 15 15 15 15 15 15 15 15 15 15 14 14 14 14 14 13 13 13 13 13 13 12 12 12 12 12
17 17 17 16 16 16 16 16 16 16 16 16 16 16 16 16 15 15 15 15 15 15 15 15 15 14 14 14 14 14 14 13 13 13 13 12 12 12 12 12 12 11 11
16 16 16 16 16 16 16 16 16 16 16 15 15 15 15 15 15 15 15 15 15 15 15 15 14 14 14 14 14 14 13 13 13 13 12 12 12 12 12 12 12 11 11
Wind_Speed
10 10 10 9 9 8 8 7 6 5 4 3 2 2 2 2 2 2 2 2 2 2 1 1 2 1 2 1 2 2 2 2 1 1 1 2 2 2 2 1 1 2 2
12 11 11 10 10 10 9 8 7 6 5 4 3 2 1 2 2 1 2 1 2 1 1 1 2 2 1 2 1 1 1 1 1 1 2 1 3 2 2 2 2 1 2
13 13 13 12 11 10 9 8 7 6 6 5 4 3 3 2 2 2 2 2 2 1 0 1 1 1 2 1 2 2 2 2 1 2 2 2 1 0 2 3 3 2 1
14 13 14 13 12 11 10 9 8 7 6 6 5 4 3 2 2 2 2 2 2 2 2 1 1 1 1 1 2 1 2 3 2 2 2 3 3 2 1 2 3 3 3
15 15 14 13 12 11 10 9 9 8 7 6 6 5 4 3 3 3 3 2 3 2 2 2 2 1 1 1 1 1 2 2 2 2 2 3 3 4 3 2 2 2 2
15 15 14 13 12 11 11 10 10 9 8 8 7 6 5 4 3 3 3 3 3 3 3 2 2 2 1 1 1 1 2 2 2 3 3 3 3 3 3 3 3 2 2
15 15 15 14 13 12 12 11 10 9 9 8 8 7 6 5 4 4 3 3 2 3 3 2 2 1 1 1 1 2 1 2 2 3 3 3 3 2 3 3 3 3 3
14 15 15 14 13 13 12 12 11 10 10 9 8 7 7 5 4 4 3 3 2 2 2 3 2 2 2 2 1 1 1 1 2 3 2 3 2 3 3 3 3 4 4
13 14 14 14 13 13 13 12 11 10 10 9 8 7 7 5 4 4 4 3 2 2 3 3 3 2 2 1 2 1 1 1 2 2 2 2 2 2 3 3 4 4 5
11 12 12 13 12 12 12 11 11 10 9 9 8 7 7 6 5 5 4 3 3 2 3 3 3 2 2 2 2 1 1 1 1 1 1 2 2 2 3 3 3 4 5
11 11 11 12 12 12 11 11 10 10 9 8 7 7 7 7 6 5 5 4 4 4 4 4 3 3 2 2 1 1 1 2 2 2 2 2 3 3 3 3 3 3 3
9 10 11 11 11 11 11 11 10 9 9 8 8 7 7 6 6 6 5 5 5 5 4 4 3 3 2 2 2 2 2 2 2 2 2 2 2 2 3 3 3 3 4
8 9 9 10 10 10 10 10 10 9 9 8 8 7 7 7 6 6 5 5 5 5 4 4 3 3 3 3 3 3 3 3 3 3 3 3 3 3 2 3 4 4 4
8 9 9 9 9 9 9 9 9 8 8 8 8 7 6 6 5 5 5 5 5 5 4 4 4 3 3 3 3 3 3 3 3 3 3 3 3 3 3 3 3 3 3
8 8 9 9 9 9 8 8 8 8 8 8 8 7 6 6 5 5 5 5 5 4 4 4 4 4 4 3 2 3 3 3 4 4 3 3 2 2 3 3 2 3 3
8 8 8 8 8 9 9 9 8 8 8 8 7 7 6 6 5 5 5 5 5 4 4 4 4 4 2 2 0 3 3 3 4 4 4 4 3 3 3 2 3 3 4
7 8 8 8 8 8 9 9 9 9 8 7 7 7 6 6 6 6 5 5 5 5 4 4 4 4 2 3 2 3 4 4 4 4 4 4 3 4 4 4 5 5 4
6 7 7 7 8 8 9 9 9 9 8 8 7 7 7 7 6 6 6 5 5 5 5 4 4 4 3 4 4 5 6 5 5 5 5 5 4 4 4 5 5 5 5
5 5 6 7 7 8 8 9 9 8 8 7 7 6 7 7 6 6 6 5 5 5 5 5 5 5 4 5 5 6 5 5 6 6 6 6 6 3 3 5 6 5 5
4 5 5 6 7 7 8 8 8 7 7 6 6 5 6 6 6 5 5 5 5 5 5 5 5 6 5 6 6 6 5 5 5 5 5 6 5 4 5 6 6 6 6
5 6 6 6 7 7 8 8 7 6 6 5 5 5 5 5 5 4 4 4 5 5 5 5 5 6 5 5 7 7 5 5 6 5 5 4 6 7 8 8 7 6 5
6 6 6 6 6 7 7 7 6 5 5 5 5 4 4 4 4 4 4 4 5 6 6 5 5 5 5 5 6 9 9 8 7 6 6 4 5 8 9 8 5 5 6
5 5 6 6 5 5 6 6 5 5 5 5 4 4 4 4 4 4 4 5 5 5 5 5 5 4 3 4 8 9 10 10 8 6 4 4 6 7 7 8 8 7 6
4 4 5 5 5 5 5 4 4 4 4 4 4 4 4 5 4 4 4 5 5 5 5 5 5 4 4 4 3 4 5 7 7 6 5 7 8 8 6 6 7 7 6
3 4 4 5 4 4 4 4 4 5 4 4 4 4 4 4 4 4 4 5 4 3 5 5 5 5 5 2 1 4 4 4 4 4 5 5 4 5 5 5 5 6 6
3 3 3 4 3 3 3 3 4 4 4 4 4 4 4 4 4 4 4 3 4 2 4 5 6 5 3 2 3 5 5 4 4 5 6 6 6 6 5 5 5 5 5
Wind_Direction
188 185 186 185 183 181 182 187 190 182 184 178 179 166 155 153 130 132 129 143 130 129 178 139 141 185 157 165 172 175 183 203 188 207 189 174 172 149 159 161 159 152 165
189 187 189 188 188 185 187 187 192 191 193 181 177 175 162 159 149 123 119 141 140 148 152 136 179 173 168 181 182 193 242 210 194 275 260 215 172 178 166 162 167 168 169
195 190 192 194 190 187 189 189 189 191 198 189 182 172 171 182 158 158 158 160 164 168 148 176 201 174 211 174 195 210 233 259 244 267 286 296 298 187 167 179 174 184 207
199 194 193 194 192 190 189 189 188 191 192 193 194 188 187 185 183 182 160 160 161 164 162 167 177 199 198 164 218 194 245 252 257 233 252 278 311 285 217 195 184 190 200
198 195 194 192 192 191 189 188 187 189 190 195 195 200 199 198 180 177 157 181 163 173 176 174 174 185 200 176 248 234 265 260 268 263 249 249 242 250 261 251 218 206 204
196 195 192 189 192 191 191 189 186 190 192 197 198 203 200 204 193 188 177 187 175 179 178 184 184 192 185 188 229 234 219 273 272 273 266 263 264 260 258 259 248 249 227
195 192 191 190 191 192 192 190 187 190 193 195 197 198 197 199 202 210 198 213 190 180 173 185 182 189 190 214 235 220 247 252 256 257 264 273 273 282 276 268 265 271 257
192 191 190 190 192 193 193 192 190 191 190 191 193 196 200 205 202 208 221 206 211 196 169 178 185 197 217 227 214 243 236 243 253 256 269 271 268 270 267 271 269 268 257
187 186 186 188 188 190 191 192 189 190 191 191 189 191 197 204 200 195 209 207 205 196 180 186 189 199 211 234 242 248 267 266 261 252 234 267 281 271 271 268 264 270 274
180 181 183 185 185 186 185 186 186 187 189 190 193 188 191 194 197 200 193 195 194 192 188 189 191 198 201 212 241 224 215 258 269 285 300 287 285 284 270 276 275 267 272
176 178 180 181 181 181 180 182 183 184 185 184 185 189 189 188 187 190 193 193 194 186 191 195 197 198 199 202 210 244 233 252 271 271 264 273 294 291 285 278 273 267 259
171 172 172 174 177 180 180 180 183 184 183 180 181 187 188 188 192 190 192 194 192 193 190 197 201 208 205 207 217 242 244 251 261 267 275 277 275 282 286 286 276 268 260
166 167 168 172 175 175 177 179 183 182 180 178 182 183 188 188 193 195 193 192 192 194 194 196 207 219 220 219 225 237 247 251 253 254 254 264 273 274 288 286 276 263 249
168 170 168 168 169 169 169 171 175 177 177 178 181 180 185 186 186 187 187 190 192 194 197 201 207 214 223 227 235 243 249 254 254 253 255 260 264 263 271 267 270 271 259
172 173 172 170 169 167 166 164 166 169 172 176 180 179 180 181 182 184 187 189 193 196 196 201 201 206 212 219 237 247 246 250 255 254 254 258 269 304 289 286 283 270 261
181 176 172 169 169 169 168 166 167 167 169 175 177 175 179 182 186 188 189 189 190 196 197 201 205 209 207 106 8 272 250 248 250 254 251 240 219 212 225 281 310 303 268
187 180 177 174 173 173 172 170 169 165 164 170 174 174 180 186 192 194 189 190 195 197 200 206 208 206 176 140 184 262 258 251 253 254 253 252 232 217 225 215 222 242 256
189 183 178 175 174 172 170 167 165 165 165 168 172 177 187 191 193 195 194 194 200 204 205 206 205 205 187 174 205 240 242 250 250 249 249 251 253 241 242 240 238 240 234
187 185 181 173 168 166 162 161 164 166 169 173 178 182 189 191 194 196 196 195 198 202 206 206 209 211 203 193 209 240 244 241 246 247 245 245 244 222 241 242 241 246 246
167 167 165 158 156 158 158 159 160 163 169 172 179 185 191 192 195 196 197 198 201 209 214 211 217 220 223 198 203 231 248 247 248 242 237 231 237 214 218 237 242 244 248
156 154 151 151 151 155 157 158 162 171 171 165 165 175 186 191 194 195 199 204 210 213 223 223 225 228 230 203 196 215 243 254 253 252 248 234 188 210 222 239 242 247 255
149 148 146 144 146 155 160 163 167 169 164 160 164 168 177 193 188 196 207 213 216 214 217 224 235 231 225 219 204 207 230 261 258 258 259 248 195 216 226 234 239 239 245
147 149 147 147 151 163 169 168 161 165 165 167 172 174 182 199 199 202 209 215 219 230 230 231 239 244 237 211 196 207 222 239 251 261 269 256 221 223 228 224 224 227 237
153 155 153 154 157 161 163 162 161 166 171 179 184 186 194 201 202 219 222 227 229 236 240 243 250 257 249 250 232 230 229 229 242 259 245 221 220 231 242 226 221 235 240
154 157 156 156 159 158 157 165 167 170 179 186 193 205 211 208 208 217 232 238 241 252 255 260 261 266 265 273 293 257 245 250 255 260 255 251 241 235 238 239 237 239 236
141 147 156 161 163 166 169 173 175 179 188 197 206 218 221 220 227 225 229 225 241 213 231 257 268 267 266 228 231 251 255 242 234 241 246 248 248 248 247 248 247 244 247
Height
1527 1529 1531 1532 1533 1534 1535 1536 1538 1539 1539 1540 1541 1541 1542 1542 1543 1543 1543 1543 1544 1544 1544 1545 1545 1546 1547 1547 1547 1548 1548 1549 1549 1550 1550 1550 1550 1550 1550 1551 1552 1552 1552
1524 1527 1529 1530 1532 1533 1534 1535 1537 1538 1539 1540 1540 1541 1542 1543 1543 1543 1543 1543 1544 1544 1545 1545 1545 1546 1546 1546 1547 1547 1548 1549 1549 1549 1549 1550 1551 1550 1550 1550 1550 1551 1551
1520 1524 1526 1528 1530 1531 1533 1535 1536 1537 1538 1539 1541 1541 1542 1542 1543 1543 1543 1543 1543 1544 1544 1544 1545 1545 1546 1546 1546 1546 1546 1548 1548 1548 1549 1549 1548 1549 1550 1549 1550 1550 1550
1517 1520 1523 1525 1528 1530 1531 1533 1534 1535 1537 1538 1540 1541 1541 1542 1542 1543 1543 1543 1543 1543 1544 1544 1544 1544 1545 1545 1545 1545 1545 1546 1547 1547 1547 1548 1548 1549 1548 1549 1548 1548 1548
1513 1516 1519 1522 1525 1528 1530 1531 1532 1534 1535 1537 1538 1539 1540 1541 1542 1542 1542 1542 1543 1543 1543 1543 1543 1543 1544 1544 1544 1544 1544 1545 1545 1546 1546 1546 1547 1547 1547 1547 1547 1547 1547
1509 1513 1516 1519 1522 1525 1527 1529 1530 1532 1533 1535 1536 1537 1539 1540 1541 1541 1541 1542 1542 1542 1542 1542 1542 1543 1543 1543 1543 1543 1543 1543 1543 1544 1544 1545 1546 1545 1546 1545 1545 1545 1545
1504 1509 1513 1516 1519 1522 1524 1526 1528 1529 1531 1533 1534 1536 1537 1538 1539 1540 1541 1541 1542 1542 1541 1542 1541 1542 1542 1542 1542 1541 1542 1542 1542 1542 1543 1543 1543 1544 1544 1544 1543 1543 1543
1500 1505 1509 1512 1515 1518 1521 1524 1525 1527 1529 1531 1532 1534 1535 1537 1538 1538 1539 1540 1540 1541 1540 1540 1540 1540 1540 1541 1540 1541 1540 1540 1540 1540 1540 1541 1542 1541 1542 1542 1542 1541 1541
1497 1501 1506 1509 1512 1515 1518 1521 1523 1525 1527 1529 1530 1531 1533 1534 1535 1536 1537 1538 1538 1539 1538 1538 1539 1539 1539 1539 1539 1539 1539 1539 1539 1539 1539 1539 1540 1540 1540 1540 1540 1540 1539
1495 1499 1503 1506 1509 1512 1515 1518 1520 1522 1524 1526 1528 1529 1530 1532 1533 1534 1535 1535 1536 1536 1537 1537 1537 1537 1537 1537 1537 1537 1537 1537 1537 1537 1537 1537 1538 1537 1537 1537 1537 1537 1537
1493 1497 1500 1503 1507 1510 1513 1515 1518 1520 1522 1523 1525 1527 1528 1529 1530 1531 1532 1533 1534 1534 1534 1535 1535 1536 1536 1536 1535 1536 1536 1536 1536 1536 1536 1535 1535 1535 1535 1535 1534 1534 1534
1492 1495 1498 1501 1504 1507 1510 1512 1515 1517 1519 1521 1522 1524 1525 1527 1528 1529 1530 1531 1531 1532 1533 1533 1534 1534 1534 1534 1534 1534 1534 1534 1534 1534 1533 1533 1533 1533 1533 1532 1532 1531 1531
1491 1493 1496 1499 1502 1504 1507 1510 1512 1514 1516 1518 1520 1522 1523 1524 1525 1527 1528 1528 1529 1530 1530 1531 1531 1532 1532 1532 1532 1532 1532 1532 1532 1532 1531 1531 1531 1530 1530 1530 1529 1529 1528
1489 1492 1495 1497 1500 1502 1504 1507 1509 1512 1514 1516 1518 1519 1521 1522 1523 1524 1525 1526 1527 1527 1528 1529 1529 1529 1530 1530 1530 1530 1530 1530 1530 1529 1529 1529 1529 1528 1528 1527 1526 1526 1525
1488 1490 1493 1495 1498 1500 1502 1504 1506 1509 1511 1513 1515 1516 1518 1520 1521 1522 1523 1524 1524 1526 1526 1526 1527 1527 1528 1528 1528 1528 1528 1528 1527 1527 1527 1526 1526 1525 1525 1525 1524 1524 1523
1487 1489 1491 1493 1495 1497 1499 1501 1504 1506 1508 1511 1513 1514 1516 1518 1519 1520 1521 1522 1522 1523 1523 1524 1524 1525 1525 1525 1525 1526 1526 1525 1525 1525 1524 1524 1523 1523 1522 1522 1521 1521 1521
1485 1487 1489 1491 1493 1495 1497 1499 1501 1503 1506 1508 1510 1512 1513 1515 1516 1518 1519 1520 1520 1520 1521 1521 1522 1522 1522 1522 1522 1522 1523 1523 1522 1522 1522 1522 1521 1520 1520 1519 1518 1518 1517
1484 1486 1487 1489 1491 1493 1495 1497 1499 1501 1503 1506 1508 1509 1511 1512 1514 1515 1515 1517 1517 1518 1518 1519 1519 1519 1519 1519 1519 1519 1519 1519 1519 1519 1518 1518 1518 1517 1517 1516 1516 1515 1514
1482 1484 1485 1487 1489 1491 1493 1494 1497 1499 1501 1504 1506 1507 1509 1510 1511 1512 1513 1514 1514 1515 1515 1516 1516 1516 1516 1516 1516 1516 1516 1515 1515 1515 1515 1514 1514 1513 1513 1513 1512 1512 1511
1480 1482 1484 1486 1487 1489 1491 1493 1495 1497 1499 1501 1503 1505 1506 1507 1508 1509 1510 1511 1511 1512 1512 1513 1512 1512 1512 1512 1512 1512 1512 1512 1512 1511 1511 1510 1510 1510 1509 1509 1509 1508 1508
1479 1480 1482 1484 1486 1488 1490 1492 1494 1496 1498 1499 1501 1503 1504 1505 1506 1507 1507 1508 1508 1509 1509 1509 1509 1509 1509 1508 1508 1508 1508 1508 1508 1508 1508 1507 1506 1505 1505 1505 1505 1505 1504
1478 1479 1481 1483 1485 1487 1489 1490 1492 1495 1496 1497 1498 1500 1501 1503 1504 1504 1505 1505 1506 1506 1506 1506 1506 1506 1506 1505 1505 1505 1504 1504 1504 1504 1504 1503 1502 1502 1501 1501 1501 1500 1500
1478 1479 1481 1482 1484 1486 1488 1489 1491 1493 1494 1496 1496 1497 1498 1500 1501 1502 1502 1503 1503 1504 1504 1504 1504 1504 1503 1502 1501 1500 1500 1500 1500 1500 1499 1499 1498 1497 1497 1497 1497 1496 1496
1477 1479 1480 1481 1483 1485 1487 1488 1490 1491 1492 1493 1494 1495 1496 1497 1498 1499 1500 1500 1501 1501 1501 1500 1500 1500 1499 1498 1497 1497 1496 1496 1496 1495 1495 1494 1494 1493 1493 1493 1493 1492 1492
1477 1478 1479 1480 1482 1483 1484 1486 1488 1489 1490 1491 1492 1493 1494 1494 1495 1495 1496 1497 1497 1497 1497 1497 1497 1496 1495 1495 1494 1493 1492 1492 1492 1491 1491 1491 1490 1489 1489 1489 1488 1488 1488
1476 1477 1479 1480 1481 1482 1483 1484 1485 1486 1487 1488 1489 1490 1491 1492 1492 1492 1492 1492 1492 1492 1492 1492 1492 1491 1491 1490 1489 1489 1488 1487 1487 1487 1486 1486 1486 1485 1485 1484 1484 1483 1483